Location: North Bay Shore
(40.7362°N, 73.2626°W)
Time: 09:15:56
(UTC+00:00)

Cosmos 2369 - Pass Details

Date: 29 October 2020
Orbit: 840 x 855 km, 71.0° (Epoch: 23 November)

Event Time Altitude Azimuth Distance (km) Brightness Sun altitude
Rises 23:30:43 0° 206° (SSW) 3,409 7.2 -19.1°
Reaches altitude 10° 23:33:10 10° 208° (SSW) 2,476 6.5 -19.6°
Maximum altitude 23:38:51 76° 294° (WNW) 880 3.8 -20.7°
Drops below altitude 10° 23:44:34 10° 21° (NNE) 2,483 5.9 -21.8°
Enters shadow 23:45:08 - 21° (NNE) 2,697 6.1 -21.9°
